Istanbul, Turkey

4:37 AM EEST on August 21, 2014 (GMT +0300)
Ataturk | Change Station
CLOSE
Current Station
Airport
Location: Istanbul,
Elevation: 121 ft
Nearby Weather Stations

Elev 121 ft 40.98 °N, 28.81 °E | Updated 17 minutes ago

Clear
Clear
75 °F
Feels Like 75 °F
N
5
Wind Variable Wind from NE

Today
High -- | Low -- °F
--% Chance of Precip.
Yesterday
High -- | Low -- °F
Precip. -- in
6:20 AM 7:54 PM
Waning Crescent, 18% visible
Pressure 29.98 in
Visibility -9999.0 miles
Clouds
Dew Point 68 °F
Humidity 78%
Rainfall 0.00 in
Snow Depth Not available.
UV Not available.
Pollen Not available.
Air Quality Not available.
Flu Activity Not available.
METAR LTBA 210120Z 05004KT 020V080 CAVOK 24/20 Q1015 NOSIG RMK RWY17L 35004KT RWY05 04004KT RWY23 02003KT

More Conditions Fewer Conditions

Pressure 29.98 in
Visibility -9999.0 miles
Clouds
Dew Point 68 °F
Humidity 78%
Rainfall 0.00 in
Snow Depth Not available.
UV Not available.
Pollen Not available.
Air Quality Not available.
Flu Activity Not available.
METAR LTBA 210120Z 05004KT 020V080 CAVOK 24/20 Q1015 NOSIG RMK RWY17L 35004KT RWY05 04004KT RWY23 02003KT

More Conditions Fewer Conditions

10-Day Weather Forecast

Almanac

Astronomy

Aug. 21, 2014 Rise Set
Actual Time 6:20 AM EEST 7:54 PM EEST
Civil Twilight 5:51 AM EEST 8:23 PM EEST
Nautical Twilight 5:16 AM EEST 8:58 PM EEST
Astronomical Twilight 4:38 AM EEST 9:35 PM EEST
Moon 2:32 AM EEST 5:10 PM EEST
Length of Visible Light 14h 32m
Length of Day
13h 34m
Tomorrow will be 2m 30s shorter.
Waning Crescent, 18% of the Moon is Illuminated
Aug 20
Waning Crescent
Aug 25
New
Sep 2
First Quarter
Sep 8
Full
Sep 15
Last Quarter

Yesterday's Extremes

Country Highs Country Lows

Community

WunderPhotos

Upload Photos

1,745,859 photos uploaded!

WunderBlogs® & News

Nearby

Snow Depth

Not available.

Earthquake Activity

City Distance Mag. Time & Date
No recent earthquake activity has been reported nearby.
Minimum magnitude displayed is 2.5.

Coastal Water Temperatures

Place Temperature
No Stations Reporting

Nearby Weather Stations